[[{"header":{"parameterUnit":"m.s-1","parameterCategory":1,"la1":30.2991,"la2":30.254,"lo1":-89.0895,"lo2":-89.0444,"dy":0.0017,"dx":0.0017,"nx":28,"ny":28,"refTime":"2024-04-15T09:00:00:Z","depth":0,"parameterNumber":2,"parameterNumberName":"U-component_of_WINDS"},"data":[0,0,0,0,0,0,0,0,0,0,0,0,0,0,0,0,0,0,0,0,0,0,0,0,0,0,0,0,0,0,0,0,0,0,0,0,0,0,0,0,0,0,0,0,0,0,0,0,0,0,0,0,0,0,0,0,0,0,-2.5996,-2.5997,0,-2.6057,-2.6058,-2.6058,-2.6042,-2.6041,-2.604,-2.6039,-2.6099,-2.6102,-2.6105,0,0,0,0,0,0,0,0,0,0,0,0,0,-2.5864,-2.5866,-2.5996,-2.5997,-2.5998,-2.6057,-2.6058,-2.6058,-2.6042,-2.6041,-2.6039,-2.6038,-2.6098,-2.6102,-2.6105,0,0,0,0,0,0,0,0,0,0,0,0,0,-2.5923,-2.5867,-2.5996,-2.5997,-2.5997,-2.6057,-2.6058,-2.6059,-2.6043,-2.6041,-2.6039,-2.6037,-2.6097,-2.6101,-2.6105,-2.6167,0,0,-2.6118,-2.612,0,0,0,0,0,0,0,0,-2.5919,-2.5927,-2.5996,-2.5997,-2.5998,-2.604,-2.6033,-2.6095,-2.6043,-2.6025,-2.6039,-2.6036,-2.6081,-2.6086,-2.6102,-2.617,-2.6172,-2.6118,-2.6121,-2.6122,-2.6124,0,0,0,0,0,0,0,-2.5915,-2.5925,-2.602,-2.5997,-2.5998,-2.5993,-2.6,-2.6045,-2.6063,-2.6027,-2.6026,-2.6033,-2.6081,-2.6098,-2.6103,-2.6173,-2.6118,-2.6122,-2.6124,-2.6126,-2.6294,-2.6296,0,0,0,0,0,0,-2.5911,-2.5921,-2.6018,-2.6022,-2.5953,-2.5997,-2.6004,-2.6028,-2.6062,-2.6065,-2.6035,-2.6032,-2.6092,-2.6098,-2.6105,-2.6178,-2.6122,-2.6126,-2.6129,-2.6292,-2.6294,-2.6296,0,0,0,0,0,0,-2.5908,-2.592,-2.6016,-2.5971,-2.5983,-2.6001,-2.6028,-2.603,-2.6047,-2.6068,-2.6071,-2.6049,-2.609,-2.6099,-2.6151,-2.618,-2.6128,-2.6132,-2.6289,-2.6292,-2.6295,-2.6326,0,0,0,0,0,0,-2.5904,-2.5919,-2.5943,-2.5972,-2.5986,-2.6062,-2.603,-2.6033,-2.6054,-2.6052,-2.6082,-2.6085,-2.609,-2.6145,-2.6156,-2.6185,-2.6135,-2.6287,-2.6291,-2.6294,-2.6322,-2.6329,-2.6335,0,0,0,0,0,-2.59,-2.5949,-2.5944,-2.5956,-2.6016,-2.6064,-2.6071,-2.6076,-2.6057,-2.6081,-2.6094,-2.6084,-2.6176,-2.6151,-2.6162,-2.6193,-2.6285,-2.629,-2.6294,-2.6319,-2.6328,-2.6335,0,0,0,0,0,0,-2.5922,-2.5953,-2.5948,-2.6008,-2.6033,-2.6061,-2.6091,-2.6085,-2.6116,-2.6112,-2.6116,-2.6123,-2.6176,-2.619,-2.6162,-2.6254,-2.6227,-2.6234,-2.6243,-2.6251,-2.6258,-2.6252,-2.6139,0,0,0,0,0,-2.5934,-2.597,-2.5995,-2.6046,-2.6059,-2.6073,-2.6094,-2.6095,-2.6121,-2.6132,-2.6149,-2.6174,-2.6208,-2.6231,-2.6264,-2.6324,-2.633,-2.6351,-2.6358,-2.6363,-2.6369,-2.64,-2.641,-2.6311,-2.6311,-2.6311,0,0,-2.5959,-2.598,-2.6003,-2.6051,-2.607,-2.6107,-2.6082,-2.6122,-2.6149,-2.6137,-2.6187,-2.6201,-2.623,-2.6286,-2.6312,-2.6299,-2.6397,-2.6369,-2.6373,-2.6375,-2.6406,-2.6415,-2.6423,-2.6314,-2.6313,-2.6313,0,0,-2.6023,-2.6043,-2.6087,-2.6107,-2.6138,-2.6147,-2.6157,-2.6186,-2.6194,-2.6245,-2.6237,-2.6269,-2.6328,-2.6348,-2.6366,-2.6437,-2.6429,-2.6448,-2.6482,-2.6513,-2.6521,-2.6528,-2.6551,-2.656,-2.6454,-2.6454,-2.6454,0,-2.6049,-2.6105,-2.611,-2.6151,-2.6171,-2.6164,-2.6207,-2.6227,-2.6266,-2.628,-2.6266,-2.634,-2.6358,-2.6419,-2.6436,-2.6451,-2.6462,-2.6444,-2.6519,-2.6526,-2.6533,-2.6555,-2.6565,-2.6456,-2.6456,-2.6455,-2.6455,0,-2.6136,-2.6174,-2.6206,-2.6244,-2.6269,-2.6311,-2.6322,-2.6346,-2.6345,-2.6355,-2.6406,-2.6429,-2.6465,-2.648,-2.648,-2.654,-2.6531,-2.6518,-2.6491,-2.6544,-2.6565,-2.6574,-2.6459,-2.6458,-2.6457,-2.6457,0,0,-2.6214,-2.6255,-2.6266,-2.6283,-2.6316,-2.6345,-2.6387,-2.6423,-2.6443,-2.647,-2.6504,-2.6555,-2.6543,-2.6563,-2.6565,-2.6593,-2.6646,-2.6576,-2.6577,-2.6587,-2.6712,-2.672,-2.673,-2.6641,-2.6643,-2.6644,-2.6709,0,-2.628,-2.6353,-2.6358,-2.6424,-2.6458,-2.6452,-2.6487,-2.6511,-2.6522,-2.6552,-2.6564,-2.6599,-2.6582,-2.6594,-2.6621,-2.6634,-2.667,-2.6629,-2.6671,-2.6672,-2.6662,-2.6741,-2.6751,-2.681,-2.6717,-2.6719,-2.672,0,-2.6365,-2.6395,-2.6464,-2.6491,-2.6506,-2.6538,-2.6571,-2.6601,-2.6627,-2.6633,-2.6656,-2.6654,-2.6696,-2.6669,-2.6725,-2.6697,-2.6715,-2.6724,-2.6726,-2.6729,-2.6698,-2.6745,-2.683,-2.6838,-2.6733,-2.6732,-2.6731,0,-2.6414,-2.6471,-2.652,-2.6535,-2.6568,-2.659,-2.6605,-2.663,-2.6651,-2.668,-2.6693,-2.6727,-2.6745,-2.677,-2.6777,-2.6757,-2.6833,-2.6807,-2.6838,-2.6837,-2.6853,-2.6851,-2.694,-2.6867,-2.6867,-2.6867,-2.6866,0,-2.6485,-2.6527,-2.6542,-2.6571,-2.6618,-2.6624,-2.667,-2.6683,-2.6705,-2.6736,-2.6733,-2.6762,-2.6771,-2.6801,-2.6807,-2.6852,-2.6861,-2.6866,-2.6866,-2.6865,-2.6864,-2.6875,-2.6871,-2.6869,-2.6868,-2.6868,-2.6868,0,-2.6546,-2.6558,-2.661,-2.6637,-2.6645,-2.6678,-2.6701,-2.6729,-2.6739,-2.6779,-2.6788,-2.6804,-2.684,-2.685,-2.6894,-2.6897,-2.695,-2.6947,-2.6941,-2.694,-2.697,-2.6966,-2.7068,-2.708,-2.7,-2.7001,-2.7002,0,-2.659,-2.6622,-2.6653,-2.6673,-2.6689,-2.6723,-2.6745,-2.6752,-2.6774,-2.6806,-2.683,-2.6866,-2.6894,-2.6952,-2.6967,-2.7,-2.6997,-2.703,-2.7002,-2.6999,-2.6995,-2.6993,-2.6995,-2.7035,-2.7036,-2.7037,-2.7037,0,-2.6666,-2.667,-2.6701,-2.6735,-2.676,-2.6787,-2.6812,-2.6829,-2.684,-2.6865,-2.6902,-2.6924,-2.6968,-2.7003,-2.7036,-2.7051,-2.7045,-2.7046,-2.7055,-2.7053,-2.7047,-2.7049,-2.6954,-2.7044,-2.7043,-2.7043,-2.7042,-2.7042,-2.6719,-2.6746,-2.6772,-2.6807,-2.6827,-2.685,-2.6877,-2.6891,-2.6922,-2.6959,-2.6961,-2.7001,-2.7025,-2.7069,-2.7086,-2.7116,-2.7106,-2.7119,-2.7122,-2.7124,-2.7126,-2.7044,-2.7122,-2.7122,-2.7122,-2.7122,-2.7122,0,-2.6793,-2.6809,-2.6841,-2.6877,-2.6904,-2.6897,-2.6925,-2.6948,-2.6983,-2.7006,-2.7035,-2.7076,-2.711,-2.7128,-2.7161,-2.7182,-2.718,-2.719,-2.7188,-2.7191,-2.7134,-2.7122,-2.7191,-2.7191,-2.7191,-2.7191,-2.7191,-2.7191,-2.6835,-2.6881,-2.6888,-2.6943,-2.6959,-2.6998,-2.7014,-2.7035,-2.7054,-2.7101,-2.7129,-2.7141,-2.7162,-2.7197,-2.7227,-2.7231,-2.7243,-2.7254,-2.7257,-2.7202,-2.7195,-2.7188,-2.7178,-2.7257,-2.7257,-2.7311,-2.7312,-2.7312]},{"header":{"parameterUnit":"m.s-1","parameterCategory":1,"la1":30.2991,"la2":30.254,"lo1":-89.0895,"lo2":-89.0444,"dy":0.0017,"dx":0.0017,"nx":28,"ny":28,"refTime":"2024-04-15T09:00:00:Z","depth":0,"parameterNumber":3,"parameterNumberName":"V-component_of_WINDS"},"data":[0,0,0,0,0,0,0,0,0,0,0,0,0,0,0,0,0,0,0,0,0,0,0,0,0,0,0,0,0,0,0,0,0,0,0,0,0,0,0,0,0,0,0,0,0,0,0,0,0,0,0,0,0,0,0,0,0,0,2.6906,2.6906,0,2.6937,2.6937,2.6937,2.6917,2.6917,2.6916,2.6915,2.6945,2.6947,2.6949,0,0,0,0,0,0,0,0,0,0,0,0,0,2.6831,2.6832,2.6906,2.6906,2.6907,2.6937,2.6937,2.6937,2.6918,2.6917,2.6915,2.6914,2.6945,2.6947,2.6949,0,0,0,0,0,0,0,0,0,0,0,0,0,2.6863,2.6833,2.6906,2.69,2.69,2.6937,2.6937,2.6938,2.6918,2.6916,2.6915,2.6914,2.6944,2.6947,2.6949,2.6992,0,0,2.6957,2.6958,0,0,0,0,0,0,0,0,2.6861,2.6865,2.6901,2.6901,2.6901,2.6922,2.6922,2.6956,2.6918,2.6911,2.6915,2.6913,2.6939,2.6941,2.695,2.6994,2.6995,2.6957,2.6958,2.696,2.696,0,0,0,0,0,0,0,2.6859,2.6864,2.6918,2.6901,2.6901,2.6897,2.69,2.6928,2.6932,2.6912,2.691,2.6914,2.6938,2.6948,2.6951,2.6995,2.6957,2.6959,2.6961,2.6962,2.7078,2.7079,0,0,0,0,0,0,2.6857,2.6862,2.6917,2.6919,2.6877,2.6899,2.6902,2.6916,2.6932,2.6933,2.6915,2.6913,2.6944,2.6948,2.6952,2.7005,2.6959,2.6962,2.6963,2.7076,2.7078,2.708,0,0,0,0,0,0,2.6855,2.6862,2.6916,2.689,2.6897,2.6902,2.6918,2.6918,2.6927,2.6935,2.6935,2.6924,2.6943,2.6948,2.6983,2.7006,2.6963,2.6965,2.7075,2.7077,2.7079,2.711,0,0,0,0,0,0,2.6853,2.6861,2.6877,2.6891,2.6898,2.6946,2.6919,2.6919,2.6932,2.6929,2.6943,2.6944,2.6943,2.6979,2.6985,2.7008,2.6967,2.7073,2.7076,2.7078,2.7107,2.7113,2.7119,0,0,0,0,0,2.6851,2.6884,2.6878,2.6885,2.6918,2.6947,2.6952,2.6949,2.6934,2.695,2.6955,2.6944,2.7002,2.6983,2.699,2.7014,2.7071,2.7075,2.7078,2.7105,2.7112,2.7119,0,0,0,0,0,0,2.6873,2.6886,2.6879,2.6918,2.6932,2.6944,2.6965,2.6957,2.6975,2.6972,2.6968,2.6971,2.7008,2.7014,2.6993,2.7057,2.7034,2.7039,2.7052,2.7059,2.7065,2.7063,2.6969,0,0,0,0,0,2.6882,2.6905,2.6915,2.6948,2.6956,2.6959,2.6972,2.6969,2.6983,2.6988,2.6996,2.701,2.7031,2.7045,2.7065,2.7108,2.7112,2.7128,2.7134,2.7138,2.7143,2.7168,2.7176,2.7092,2.7092,2.7092,0,0,2.6902,2.6912,2.6926,2.6953,2.6963,2.6987,2.6964,2.699,2.7008,2.6992,2.7026,2.7032,2.7047,2.7087,2.7104,2.7093,2.7167,2.7143,2.7147,2.7149,2.7172,2.718,2.7187,2.7094,2.7094,2.7093,0,0,2.695,2.6959,2.6989,2.7001,2.7017,2.7019,2.7027,2.704,2.7044,2.7078,2.7068,2.7089,2.7126,2.7138,2.7149,2.7204,2.7195,2.7211,2.7241,2.7265,2.7272,2.7278,2.7299,2.7306,2.7215,2.7215,2.7215,0,2.6972,2.7008,2.7005,2.7033,2.7046,2.7034,2.7065,2.7076,2.7098,2.7107,2.7094,2.7142,2.7151,2.7194,2.7208,2.7216,2.7225,2.7209,2.7271,2.7277,2.7282,2.7302,2.731,2.7217,2.7217,2.7217,2.7217,0,2.7035,2.706,2.7083,2.7105,2.7121,2.7149,2.7152,2.7168,2.7165,2.7169,2.7204,2.7216,2.7239,2.7249,2.7245,2.7292,2.7284,2.7271,2.7248,2.7292,2.7311,2.7319,2.722,2.7219,2.7219,2.7218,0,0,2.7097,2.712,2.7128,2.7139,2.7157,2.7177,2.7206,2.7229,2.7244,2.726,2.7285,2.7317,2.7306,2.7319,2.7316,2.7338,2.7383,2.7322,2.7323,2.7334,2.7437,2.7448,2.7457,2.7377,2.7378,2.738,2.7437,0,2.7147,2.7198,2.7198,2.7245,2.7269,2.726,2.7285,2.73,2.7305,2.7326,2.7332,2.7355,2.7338,2.7346,2.7367,2.7373,2.7404,2.7369,2.7401,2.7402,2.7398,2.7466,2.7477,2.753,2.7444,2.7445,2.7446,0,2.7212,2.7232,2.7282,2.7299,2.7309,2.7332,2.7355,2.7375,2.7392,2.7394,2.7409,2.7404,2.7435,2.7411,2.7454,2.743,2.7443,2.7449,2.7451,2.7454,2.7427,2.7472,2.7546,2.7555,2.7457,2.7456,2.7456,0,2.7254,2.7293,2.7328,2.7338,2.7358,2.7375,2.7384,2.7399,2.7414,2.7434,2.7444,2.7467,2.7479,2.7498,2.7499,2.7482,2.7543,2.7519,2.7547,2.7547,2.756,2.7559,2.7638,2.7567,2.7567,2.7567,2.7567,0,2.7311,2.7342,2.7348,2.737,2.7405,2.7405,2.744,2.7448,2.7462,2.7486,2.7478,2.7501,2.7502,2.7525,2.7527,2.7563,2.7568,2.7572,2.7572,2.7573,2.7572,2.7582,2.7578,2.7569,2.7569,2.7568,2.7568,0,2.7363,2.7368,2.7406,2.7423,2.7428,2.7453,2.7468,2.7489,2.7494,2.7525,2.7532,2.754,2.7567,2.7571,2.7603,2.7604,2.7648,2.7644,2.7642,2.7642,2.767,2.7668,2.7759,2.7771,2.7691,2.7692,2.7693,0,2.7399,2.7423,2.7443,2.7459,2.7469,2.7494,2.751,2.7511,2.7528,2.755,2.7569,2.7596,2.7618,2.7662,2.7671,2.7696,2.7693,2.7723,2.7696,2.7697,2.7695,2.7694,2.7697,2.7728,2.7729,2.7729,2.773,0,2.7463,2.7465,2.7488,2.7512,2.7532,2.7551,2.7569,2.7582,2.7586,2.7605,2.7634,2.7651,2.7684,2.7711,2.7736,2.7746,2.7739,2.7738,2.7746,2.7748,2.7747,2.7749,2.7657,2.7736,2.7736,2.7735,2.7735,2.7735,2.7509,2.7531,2.7549,2.7575,2.7589,2.7607,2.7629,2.7637,2.7661,2.7689,2.7688,2.772,2.7738,2.7771,2.7783,2.7808,2.7798,2.7809,2.7812,2.7815,2.7819,2.7743,2.7812,2.7812,2.7812,2.7812,2.7812,0,2.7573,2.7585,2.7609,2.7636,2.7657,2.765,2.767,2.7688,2.7717,2.7734,2.7756,2.779,2.7817,2.7829,2.7855,2.7873,2.7871,2.7881,2.788,2.7882,2.7825,2.7816,2.7882,2.7882,2.7882,2.7882,2.7882,2.7882,2.761,2.7647,2.7651,2.7696,2.7707,2.7739,2.7751,2.7768,2.7783,2.7821,2.7844,2.7851,2.7867,2.7895,2.792,2.7923,2.7934,2.7945,2.7947,2.7893,2.7886,2.7879,2.7871,2.7947,2.7947,2.8002,2.8002,2.8002]}]]